Flag for Austria Weather past 2 weeks in Gmünd, Lower Austria, Austria

Now
68 °F

Fog.


Feels Like: 68 °F
Forecast: 55 / 65 °F
Wind: 3 mph from Northwest

Location: Retz

Current Time: Jul 31, 2014 at 3:48:43 PM

Latest Report: Jul 31, 2014 at 3:00 PM


Visibility: N/A

Pressure: 29.85 "Hg

Humidity: 92%

Dew point: 65 °F

Location of GmündLocation

Historic Weather in Gmünd — Graph

°F

Gmünd temperature yesterday

Maximum temperature yesterday: 81 °F (at 3:00 PM)
Minimum temperature yesterday: 65 °F (at 7:00 AM)
Average temperature yesterday: 71 °F

Past Weeks' High & Low Weather Summary

 TemperatureHumidityPressure
High90 °F (Jul 20, 3:00 PM)96% (Jul 31, 1:00 AM)30.12 "Hg (Jul 31, 1:00 AM)
Low59 °F (Jul 24, 5:00 AM)34% (Jul 17, 3:00 PM)29.65 "Hg (Jul 21, 4:00 PM)
Average72 °F67%29.87 "Hg
* Reported Jul 16 2:00 PM — Jul 31 2:00 PM, Gmünd, Weather by CustomWeather, © 2014

Note: Actual official high and low records may vary slightly from our data, if they occured in-between our weather recording intervals... More about our weather records

Advertising

Gmünd weather history for previous 24 hours

 ConditionsComfort  
Time TempWeatherWind HumidityBarometerVisibility
2:00 PM
Jul 31
67 °FMild.2 mph95%29.84 "HgN/A
1:00 PM66 °FMild.7 mph95%29.85 "HgN/A
12:00 PM74 °FMild.3 mph76%29.81 "HgN/A
11:00 AM72 °FMild.2 mph80%29.81 "HgN/A
10:00 AM71 °FMild.2 mph84%29.81 "HgN/A
9:00 AM70 °FMild.2 mph87%29.80 "HgN/A
8:00 AM68 °FMild.3 mph90%29.79 "HgN/A
7:00 AM66 °FMild.1 mph94%29.79 "HgN/A
6:00 AM65 °FMild.3 mph95%29.77 "HgN/A
5:00 AM66 °FMild.3 mph95%29.76 "HgN/A
4:00 AM66 °FMild.3 mph94%29.75 "HgN/A
3:00 AM66 °FMild.3 mph94%29.75 "HgN/A
2:00 AM67 °FMild.5 mph95%29.74 "HgN/A
1:00 AM66 °FMild.N/A96%29.75 "HgN/A
12:00 AM68 °FMild.3 mph95%29.74 "HgN/A
11:00 PM
Jul 30
72 °FMild.2 mph79%29.72 "HgN/A
10:00 PM72 °FMild.2 mph77%29.73 "HgN/A
9:00 PM73 °FMild.1 mph74%29.71 "HgN/A
8:00 PM74 °FOvercast.2 mph70%29.70 "Hg11 mi
7:00 PM75 °FMild.2 mph67%29.70 "HgN/A
6:00 PM76 °FMild.3 mph62%29.70 "HgN/A
5:00 PM78 °FWarm.5 mph63%29.68 "HgN/A
4:00 PM80 °FWarm.6 mph54%29.68 "HgN/A
3:00 PM81 °FWarm.5 mph51%29.69 "HgN/A
Weather by CustomWeather, © 2014

See weather overviewHow to use our weather pages